When you browse on this site, cookies collect data to enhance your experience and personalize the content and advertising you see.
Visit our Privacy Policy to learn more. By continuing to use the site, you agree to this use of cookies and data.
  • In Hungary
  • List of Countries
  • For 7 days
  • Water Temperature
  • Satellite Maps
  • Weather Map
  • News
  • Weather Widgets
  • user-avatar
    Login

    Hourly Weather Abovyan

    Today, 20 April, Saturday

    Time Temperature Precipitation Wind Pressure Humidity
    00:00 +7°C° 0.4 mm 2 mps 666 mmHg 63%
    01:00 +7°C° 0.4 mm 2 mps 666 mmHg 63%
    02:00 +6°C° 0.4 mm 2 mps 666 mmHg 64%
    03:00 +6°C° 0 mm 2 mps 665 mmHg 66%
    04:00 +6°C° 0.4 mm 2 mps 666 mmHg 66%
    05:00 +6°C° 0.4 mm 2 mps 666 mmHg 66%
    06:00 +5°C° 0.4 mm 2 mps 666 mmHg 65%
    07:00 +6°C° 0.3 mm 2 mps 666 mmHg 62%
    08:00 +7°C° 0.3 mm 2 mps 667 mmHg 59%
    09:00 +7°C° 0.3 mm 2 mps 667 mmHg 56%
    10:00 +9°C° 0.2 mm 1 mps 667 mmHg 54%
    11:00 +10°C° 0.2 mm 1 mps 668 mmHg 51%
    12:00 +11°C° 0.2 mm 1 mps 668 mmHg 48%
    13:00 +11°C° 0.1 mm 1 mps 667 mmHg 47%
    14:00 +11°C° 0.1 mm 1 mps 667 mmHg 46%
    15:00 +12°C° 0.1 mm 1 mps 667 mmHg 45%
    16:00 +10°C° 0.1 mm 2 mps 667 mmHg 46%
    17:00 +10°C° 0.1 mm 2 mps 667 mmHg 48%
    18:00 +10°C° 0.1 mm 2 mps 667 mmHg 49%
    19:00 +8°C° 0 mm 2 mps 668 mmHg 52%
    20:00 +7°C° 0 mm 2 mps 668 mmHg 55%
    21:00 +6°C° 0 mm 2 mps 668 mmHg 58%
    22:00 +6°C° 0 mm 2 mps 668 mmHg 59%
    23:00 +6°C° 0 mm 2 mps 668 mmHg 60%

    Tomorrow, 21 April, Sunday

    Time Temperature Precipitation Wind Pressure Humidity
    00:00 +5°C° 0 mm 2 mps 668 mmHg 61%
    01:00 +5°C° 0.1 mm 2 mps 668 mmHg 61%
    02:00 +5°C° 0.1 mm 2 mps 668 mmHg 61%
    03:00 +5°C° 0.1 mm 2 mps 668 mmHg 61%
    04:00 +5°C° 0.2 mm 2 mps 669 mmHg 62%
    05:00 +5°C° 0.2 mm 2 mps 669 mmHg 62%
    06:00 +5°C° 0.2 mm 2 mps 669 mmHg 62%
    07:00 +6°C° 0.2 mm 2 mps 669 mmHg 59%
    08:00 +7°C° 0.2 mm 2 mps 669 mmHg 56%
    09:00 +8°C° 0.2 mm 2 mps 669 mmHg 52%
    10:00 +9°C° 0.1 mm 2 mps 669 mmHg 50%
    11:00 +10°C° 0.1 mm 2 mps 669 mmHg 48%
    12:00 +11°C° 0.1 mm 3 mps 669 mmHg 45%
    13:00 +12°C° 0.1 mm 3 mps 668 mmHg 44%
    14:00 +12°C° 0.1 mm 3 mps 668 mmHg 44%
    15:00 +12°C° 0.1 mm 3 mps 668 mmHg 43%
    16:00 +12°C° 0.1 mm 3 mps 668 mmHg 46%
    17:00 +11°C° 0.1 mm 3 mps 668 mmHg 49%
    18:00 +10°C° 0.1 mm 4 mps 668 mmHg 51%
    19:00 +8°C° 0.1 mm 4 mps 668 mmHg 54%
    20:00 +7°C° 0.1 mm 4 mps 668 mmHg 56%
    21:00 +6°C° 0.1 mm 4 mps 669 mmHg 59%
    22:00 +6°C° 0.1 mm 4 mps 669 mmHg 60%
    23:00 +5°C° 0.1 mm 3 mps 669 mmHg 61%

    Day after tomorrow, 22 April, Monday

    Time Temperature Precipitation Wind Pressure Humidity
    00:00 +5°C° 0.1 mm 3 mps 669 mmHg 62%
    01:00 +5°C° 0.1 mm 3 mps 669 mmHg 63%
    02:00 +4°C° 0.1 mm 3 mps 669 mmHg 63%
    03:00 +4°C° 0.1 mm 3 mps 669 mmHg 64%
    04:00 +4°C° 0 mm 3 mps 668 mmHg 63%
    05:00 +4°C° 0 mm 3 mps 668 mmHg 63%
    06:00 +4°C° 0 mm 3 mps 668 mmHg 62%
    07:00 +5°C° 0 mm 3 mps 668 mmHg 58%
    08:00 +7°C° 0 mm 3 mps 668 mmHg 53%
    09:00 +9°C° 0 mm 3 mps 669 mmHg 48%
    10:00 +9°C° 0 mm 3 mps 668 mmHg 47%
    11:00 +10°C° 0 mm 3 mps 668 mmHg 45%
    12:00 +11°C° 0 mm 3 mps 668 mmHg 44%
    13:00 +11°C° 0 mm 3 mps 668 mmHg 44%
    14:00 +11°C° 0 mm 4 mps 668 mmHg 43%
    15:00 +11°C° 0 mm 4 mps 667 mmHg 43%
    16:00 +10°C° 0.1 mm 4 mps 668 mmHg 46%
    17:00 +10°C° 0.1 mm 3 mps 668 mmHg 48%
    18:00 +9°C° 0.1 mm 3 mps 668 mmHg 51%
    19:00 +8°C° 0.2 mm 3 mps 669 mmHg 53%
    20:00 +8°C° 0.2 mm 2 mps 670 mmHg 55%
    21:00 +7°C° 0.2 mm 2 mps 671 mmHg 57%
    22:00 +7°C° 0.2 mm 2 mps 671 mmHg 59%
    23:00 +6°C° 0.2 mm 2 mps 671 mmHg 60%

    23 April, Tuesday

    Time Temperature Precipitation Wind Pressure Humidity
    00:00 +6°C° 0.2 mm 2 mps 671 mmHg 62%
    01:00 +5°C° 0.2 mm 2 mps 671 mmHg 64%
    02:00 +5°C° 0.2 mm 2 mps 671 mmHg 66%
    03:00 +4°C° 0.2 mm 2 mps 671 mmHg 68%
    04:00 +4°C° 0.2 mm 2 mps 672 mmHg 68%
    05:00 +4°C° 0.2 mm 2 mps 672 mmHg 68%
    06:00 +5°C° 0.2 mm 1 mps 672 mmHg 68%
    07:00 +6°C° 0.2 mm 2 mps 673 mmHg 64%
    08:00 +7°C° 0.2 mm 2 mps 673 mmHg 59%
    09:00 +8°C° 0.2 mm 2 mps 673 mmHg 54%
    10:00 +9°C° 0.1 mm 2 mps 673 mmHg 52%
    11:00 +9°C° 0.1 mm 2 mps 673 mmHg 50%
    12:00 +10°C° 0.1 mm 2 mps 673 mmHg 47%
    13:00 +12°C° 0.2 mm 2 mps 673 mmHg 46%
    14:00 +12°C° 0.2 mm 1 mps 673 mmHg 46%
    15:00 +12°C° 0.2 mm 1 mps 673 mmHg 45%
    16:00 +12°C° 0.2 mm 1 mps 673 mmHg 47%
    17:00 +12°C° 0.2 mm 1 mps 673 mmHg 49%
    18:00 +11°C° 0.2 mm 1 mps 673 mmHg 50%
    19:00 +10°C° 0.2 mm 1 mps 674 mmHg 53%
    20:00 +10°C° 0.2 mm 1 mps 674 mmHg 55%
    21:00 +9°C° 0.2 mm 1 mps 675 mmHg 58%
    22:00 +8°C° 0.1 mm 1 mps 675 mmHg 60%
    23:00 +8°C° 0.1 mm 1 mps 675 mmHg 62%

    24 April, Wednesday

    Time Temperature Precipitation Wind Pressure Humidity
    00:00 +7°C° 0.1 mm 1 mps 675 mmHg 64%
    01:00 +7°C° 0.1 mm 1 mps 675 mmHg 66%
    02:00 +6°C° 0.1 mm 1 mps 675 mmHg 68%
    03:00 +6°C° 0.1 mm 1 mps 675 mmHg 70%
    04:00 +6°C° 0.1 mm 1 mps 675 mmHg 70%
    05:00 +6°C° 0.1 mm 1 mps 675 mmHg 70%
    06:00 +6°C° 0.1 mm 1 mps 676 mmHg 70%
    07:00 +7°C° 0 mm 1 mps 676 mmHg 64%
    08:00 +8°C° 0 mm 1 mps 676 mmHg 58%
    09:00 +9°C° 0 mm 2 mps 676 mmHg 52%
    10:00 +10°C° 0.1 mm 2 mps 675 mmHg 49%
    11:00 +12°C° 0.1 mm 2 mps 675 mmHg 47%
    12:00 +13°C° 0.1 mm 2 mps 675 mmHg 44%
    13:00 +13°C° 0.1 mm 2 mps 674 mmHg 43%
    14:00 +14°C° 0.1 mm 2 mps 674 mmHg 42%
    15:00 +14°C° 0.1 mm 2 mps 674 mmHg 41%
    16:00 +14°C° 0.2 mm 2 mps 674 mmHg 44%
    17:00 +13°C° 0.2 mm 2 mps 674 mmHg 46%
    18:00 +12°C° 0.2 mm 1 mps 674 mmHg 49%
    19:00 +12°C° 0.4 mm 2 mps 675 mmHg 52%
    20:00 +10°C° 0.4 mm 2 mps 675 mmHg 56%
    21:00 +9°C° 0.4 mm 2 mps 676 mmHg 59%
    22:00 +8°C° 0.5 mm 2 mps 676 mmHg 61%
    23:00 +9°C° 0.5 mm 1 mps 676 mmHg 64%

    25 April, Thursday

    Time Temperature Precipitation Wind Pressure Humidity
    00:00 +8°C° 0.5 mm 1 mps 676 mmHg 66%
    01:00 +8°C° 0.4 mm 1 mps 676 mmHg 68%
    02:00 +7°C° 0.4 mm 1 mps 676 mmHg 69%
    03:00 +7°C° 0.4 mm 1 mps 676 mmHg 71%
    04:00 +7°C° 0.2 mm 1 mps 676 mmHg 71%
    05:00 +7°C° 0.2 mm 1 mps 676 mmHg 72%
    06:00 +7°C° 0.2 mm 1 mps 676 mmHg 72%
    07:00 +8°C° 0.1 mm 1 mps 676 mmHg 67%
    08:00 +9°C° 0.1 mm 1 mps 676 mmHg 61%
    09:00 +10°C° 0.1 mm 1 mps 676 mmHg 56%
    10:00 +11°C° 0.1 mm 1 mps 675 mmHg 53%
    11:00 +12°C° 0.1 mm 1 mps 675 mmHg 50%
    12:00 +13°C° 0.1 mm 1 mps 675 mmHg 47%
    13:00 +13°C° 0.1 mm 1 mps 674 mmHg 46%
    14:00 +13°C° 0.1 mm 1 mps 674 mmHg 45%
    15:00 +14°C° 0.1 mm 1 mps 674 mmHg 44%
    16:00 +13°C° 0.2 mm 1 mps 674 mmHg 45%
    17:00 +13°C° 0.2 mm 1 mps 674 mmHg 46%
    18:00 +13°C° 0.2 mm 1 mps 674 mmHg 48%
    19:00 +12°C° 0.1 mm 1 mps 675 mmHg 50%
    20:00 +11°C° 0.1 mm 1 mps 675 mmHg 53%
    21:00 +10°C° 0.1 mm 1 mps 676 mmHg 55%
    22:00 +9°C° 0 mm 1 mps 676 mmHg 57%
    23:00 +8°C° 0 mm 1 mps 675 mmHg 59%
    Show more